Home   Weather   Chiclayo   Past weeks

Flag for Peru Past Weather in Chiclayo, Lambayeque, Peru — Yesterday and Last 2 Weeks

Now
68 °F

Sunny.


Feels Like: 68 °F
Forecast: 64 / 75 °F
Wind: 14 mph from South

Location: Chiclayo Airport

Current Time: Sep 30, 2016 at 8:29:04 AM

Latest Report: Sep 30, 2016 at 8:00 AM


Visibility: 10 mi

Pressure: 29.98 "Hg

Humidity: 78%

Dew Point: 61 °F

Location of ChiclayoLocation

Past Weather in Chiclayo — Graph

°F

Chiclayo Temperature Yesterday

Maximum temperature yesterday: 73 °F (at 12:00 PM)
Minimum temperature yesterday: 64 °F (at 12:00 AM)
Average temperature yesterday: 67 °F

High & Low Weather Summary for the Past Weeks

 TemperatureHumidityPressure
High77 °F (Sep 20, 12:00 PM)100% (Sep 15, 11:00 PM)30.04 "Hg (Sep 15, 11:00 PM)
Low63 °F (Sep 15, 7:00 AM)61% (Sep 20, 12:00 PM)29.77 "Hg (Sep 19, 3:00 PM)
Average68 °F84%29.92 "Hg
* Reported Sep 15 7:00 AM — Sep 30 7:00 AM, Chiclayo, Weather by CustomWeather, © 2016

Note: Actual official high and low records may vary slightly from our data, if they occured in-between our weather recording intervals... More about our weather records

Advertising

Chiclayo Weather History for the Previous 24 Hours

Scroll right to see more
 ConditionsComfort  
Time TempWeatherWind HumidityBarometerVisibility
7:00 AM
Fri, Sep 30
64 °FSunny.12 mph88%29.98 "Hg10 mi
6:00 AM64 °FClear.10 mph88%29.95 "Hg10 mi
5:00 AM64 °FClear.9 mph83%29.95 "Hg10 mi
4:00 AM64 °FClear.10 mph83%29.95 "Hg10 mi
3:00 AM64 °FClear.14 mph88%29.95 "Hg10 mi
2:00 AM64 °FClear.16 mph83%29.98 "Hg10 mi
1:00 AM64 °FClear.18 mph83%29.98 "Hg10 mi
12:00 AM64 °FClear.15 mph83%30.01 "Hg10 mi
11:00 PM
Thu, Sep 29
66 °FClear.16 mph78%30.01 "Hg10 mi
10:00 PM66 °FClear.16 mph78%30.01 "Hg10 mi
9:00 PM66 °FClear.16 mph78%29.98 "Hg10 mi
8:00 PM66 °FClear.16 mph83%N/A10 mi
7:00 PM66 °FClear.16 mph83%29.95 "Hg10 mi
6:00 PM68 °FSunny.17 mph73%29.95 "Hg10 mi
5:00 PM70 °FSunny.20 mph69%29.92 "Hg10 mi
4:00 PM70 °FPartly sunny.20 mph73%29.92 "HgN/A
3:00 PM72 °FPartly sunny.20 mph69%29.92 "HgN/A
2:00 PM72 °FBroken clouds.14 mph69%29.95 "HgN/A
1:00 PM73 °FPassing clouds.14 mph65%29.95 "HgN/A
12:00 PM73 °FScattered clouds.13 mph69%29.98 "HgN/A
11:00 AM72 °FPartly sunny.10 mph69%30.01 "HgN/A
10:00 AM68 °FOvercast.10 mph78%30.04 "HgN/A
9:00 AM68 °FOvercast.10 mph78%30.04 "HgN/A
8:00 AM66 °FOvercast.12 mph83%30.01 "HgN/A
Weather by CustomWeather, © 2016

See weather overviewHow to use our weather pages